DW3147 Weather Reports


Display with metric or nautical units.
time (UTC)temp
F
wind
direction
speed
MPH
gust
MPH
rain 1hr
in
rain 24hr
in
rain mn
in
humidity
%
barometer
mb
20260503172100 68 103 2.0 5.0 0.00 0.00 0.00 54 1014.1
20260503131059 55 85 0.0 3.0 0.00 0.00 0.00 72 1014.4
20260503081056 61 94 0.0 2.0 0.00 0.00 0.00 62 1014.2
20260503072057 64 5 2.0 4.0 0.00 0.00 0.00 51 1014.1
20260503071026 64 97 3.0 4.0 0.00 0.00 0.00 57 1014.1
20260503055057 69 310 1.0 8.0 0.00 0.00 0.00 42 1013.6
20260503054056 69 129 2.0 7.0 0.00 0.00 0.00 45 1013.6
20260503053056 68 350 3.0 8.0 0.00 0.00 0.00 49 1013.7
20260503052057 68 87 7.0 7.0 0.00 0.00 0.00 52 1013.6
20260503051056 68 129 0.0 7.0 0.00 0.00 0.00 46 1013.5
20260503044057 66 41 3.0 6.0 0.00 0.00 0.00 60 1013.3
20260503043057 65 350 3.0 10.0 0.00 0.00 0.00 61 1013.2
20260503042056 66 13 2.0 5.0 0.00 0.00 0.00 61 1013.2
20260503041055 65 40 1.0 3.0 0.00 0.00 0.00 65 1013.1
20260503040056 66 18 0.0 3.0 0.00 0.00 0.00 63 1013.0
20260503035055 66 325 1.0 5.0 0.00 0.00 0.00 61 1012.8
20260503034055 66 288 2.0 5.0 0.00 0.00 0.00 59 1012.9
20260503032056 69 315 2.0 4.0 0.00 0.00 0.00 53 1012.8
20260503031056 70 327 0.0 2.0 0.00 0.00 0.00 54 1012.8
20260503030055 71 313 0.0 3.0 0.00 0.00 0.00 51 1012.8
20260503022055 73 262 2.0 7.0 0.00 0.00 0.00 41 1012.7
20260503021055 74 310 3.0 6.0 0.00 0.00 0.00 43 1012.8
20260503020056 74 319 1.0 6.0 0.00 0.00 0.00 43 1012.8
20260503015056 74 281 1.0 8.0 0.00 0.00 0.00 42 1012.9
20260503013055 75 306 1.0 5.0 0.00 0.00 0.00 44 1013.1
20260503012055 74 280 1.0 10.0 0.00 0.00 0.00 44 1013.2
20260503011055 75 271 2.0 8.0 0.00 0.00 0.00 43 1013.3
20260503010055 75 304 4.0 8.0 0.00 0.00 0.00 44 1013.3
20260503005055 75 265 2.0 7.0 0.00 0.00 0.00 45 1013.3
20260503004055 74 203 3.0 9.0 0.00 0.00 0.00 47 1013.3
20260503002055 76 277 6.0 8.0 0.00 0.00 0.00 46 1013.5
20260503001056 76 281 2.0 6.0 0.00 0.00 0.00 46 1013.6
20260503000055 76 305 1.0 8.0 0.00 0.00 0.00 44 1013.8
20260502235055 76 242 3.0 9.0 0.00 0.00 0.00 45 1013.9
20260502234055 76 240 3.0 8.0 0.00 0.00 0.00 43 1013.9
20260502233055 76 323 1.0 7.0 0.00 0.00 0.00 46 1014.0
20260502232055 76 233 3.0 8.0 0.00 0.00 0.00 44 1014.1
20260502231054 76 315 4.0 8.0 0.00 0.00 0.00 46 1014.2
20260502230055 76 262 2.0 8.0 0.00 0.00 0.00 44 1014.4
20260502225054 76 242 1.0 8.0 0.00 0.00 0.00 47 1014.5
20260502224054 75 211 7.0 8.0 0.00 0.00 0.00 46 1014.7
20260502223054 75 238 4.0 7.0 0.00 0.00 0.00 48 1014.8
20260502222054 74 213 1.0 7.0 0.00 0.00 0.00 47 1014.9
20260502220054 74 254 2.0 7.0 0.00 0.00 0.00 50 1015.1
20260502215055 73 248 5.0 8.0 0.00 0.00 0.00 46 1015.3
20260502213053 72 257 5.0 9.0 0.00 0.00 0.00 48 1015.6
20260502212055 72 218 3.0 8.0 0.00 0.00 0.00 51 1015.7
20260502211055 71 275 3.0 8.0 0.00 0.00 0.00 48 1015.8
20260502210054 72 246 3.0 9.0 0.00 0.00 0.00 47 1015.9
20260502205054 72 267 8.0 13.0 0.00 0.00 0.00 49 1016.0
20260502204054 71 287 4.0 12.0 0.00 0.00 0.00 50 1016.1
20260502203054 71 272 7.0 10.0 0.00 0.00 0.00 55 1016.1
20260502202053 72 240 9.0 9.0 0.00 0.00 0.00 55 1016.2
20260502201053 72 249 7.0 10.0 0.00 0.00 0.00 55 1016.2
20260502200053 72 223 3.0 8.0 0.00 0.00 0.00 55 1016.3
20260502194053 72 343 0.0 8.0 0.00 0.00 0.00 55 1016.5
20260502193053 71 298 3.0 8.0 0.00 0.00 0.00 59 1016.5
20260502192054 71 286 2.0 9.0 0.00 0.00 0.00 54 1016.5
20260502191053 70 260 4.0 7.0 0.00 0.00 0.00 55 1016.6
20260502190053 70 204 3.0 7.0 0.00 0.00 0.00 57 1016.7
20260502185054 70 234 4.0 8.0 0.00 0.00 0.00 61 1016.7
20260502183054 68 304 2.0 7.0 0.00 0.00 0.00 59 1016.7
20260502182052 68 219 6.0 6.0 0.00 0.00 0.00 60 1016.8
20260502181053 67 244 5.0 8.0 0.00 0.00 0.00 63 1016.7